Voltar ao catálogo

DIGUI TONGXIN SHIYAN WEI.

AtivoMilitarPO
NORAD 52717·PAYLOAD·🇨🇳 China
Este nome de satélite ainda não foi confirmado por fontes oficiais.

Lançado May 20, 2022 de Jiuquan Satellite Launch Center

Loading…

Próximas Passagens (próximas 24 horas)

TLE

AtualizadoSource: Space-Track

Época: Sep 14, 2026, 14:32 UTC

1 52717U 22056B   26257.60604409 -.00000470  00000-0 -10408-2 0  9996
2 52717  86.0027  64.2178 0045117 154.8661 205.4685 13.29593864210197

Acompanhe DIGUI TONGXIN SHIYAN WEI. em tempo real com AllMySat

Download on the App Store